This is the latest recevied weather packets stored in our database for station/object DL4MGC-10. If no packets are shown the sender has not sent any weather packets the latest 1 day(s).
| Time | Temp. | Humidity | Pressure | Rain* | Wind** | Luminosity | Snow |
|---|---|---|---|---|---|---|---|
| 1777742651 | 24.44° C | 38% | 1016.8 hPa | - | - | - | - |
| 1777741751 | 24.44° C | 37% | 1016.9 hPa | - | - | - | - |
| 1777740851 | 25° C | 37% | 1016.8 hPa | - | - | - | - |
| 1777739951 | 25.56° C | 36% | 1017 hPa | - | - | - | - |
| 1777739050 | 26.11° C | 35% | 1017.2 hPa | - | - | - | - |
| 1777738150 | 26.11° C | 35% | 1017.4 hPa | - | - | - | - |
| 1777737250 | 26.11° C | 33% | 1017.5 hPa | - | - | - | - |
| 1777736350 | 26.11° C | 33% | 1017.6 hPa | - | - | - | - |
| 1777735450 | 26.67° C | 32% | 1017.9 hPa | - | - | - | - |
| 1777734550 | 27.22° C | 32% | 1017.9 hPa | - | - | - | - |
| 1777733650 | 27.22° C | 33% | 1018.2 hPa | - | - | - | - |
| 1777732750 | 25.56° C | 32% | 1018.3 hPa | - | - | - | - |
| 1777731850 | 26.67° C | 32% | 1018.5 hPa | - | - | - | - |
| 1777730950 | 27.22° C | 32% | 1018.6 hPa | - | - | - | - |
| 1777730050 | 27.78° C | 33% | 1018.8 hPa | - | - | - | - |
| 1777729150 | 27.22° C | 34% | 1019.1 hPa | - | - | - | - |
| 1777728249 | 26.67° C | 33% | 1019.4 hPa | - | - | - | - |
| 1777727349 | 26.67° C | 33% | 1019.6 hPa | - | - | - | - |
| 1777726449 | 26.11° C | 34% | 1019.8 hPa | - | - | - | - |
| 1777725549 | 25.56° C | 34% | 1020 hPa | - | - | - | - |
| 1777724649 | 25.56° C | 36% | 1020.3 hPa | - | - | - | - |
| 1777723749 | 25° C | 35% | 1020.4 hPa | - | - | - | - |
| 1777722849 | 25.56° C | 35% | 1020.6 hPa | - | - | - | - |
| 1777721949 | 25° C | 35% | 1020.7 hPa | - | - | - | - |
| 1777721049 | 24.44° C | 40% | 1021 hPa | - | - | - | - |
* Rain since midnight (hover to see other rain measurements)
** Current wind speed in m/s (hover to see current wind gust speed)